User: anonymous
Location: Observatorio Las Palmas
(29.0667°N, 110.9333°W)
Time: 11:25:51
(UTC-07:00)
Language:

Skynet4D Del rocket - Orbit

View from above orbital plane
View from above orbital plane
View from above satellite
View from above satellite

Ground track
Ground track

The orbit data is extracted from the following two-line orbital elements,

1 25135U 98002B   14208.83696531  .00000109  00000-0 -30590-6 0  1953
2 25135 026.8853 345.3992 0356842 359.5555 164.2216 13.62254744824497
Epoch (UTC): 27 July 2014 20:05:13
Eccentricity: 0.0356842
inclination: 26.8853°
perigee height: 763 km
apogee height: 1292 km
right ascension of ascending node: 345.3992°
argument of perigee: 359.5555°
revolutions per day: 13.62254744
mean anomaly at epoch: 164.2216°
orbit number at epoch: 82449

The dashed part of the orbit path shows where the satellite is in the earth's shadow,  

DLR